| time (UTC) | temp F | wind direction | speed MPH | gust MPH | rain 1hr in | rain 24hr in | rain mn in | humidity % | barometer mb |
| 20260503181008 | 59 | 0.0 | 0.0 | 0.00 | 0.00 | 0.00 | 45 | 1017.9 | |
| 20260503180008 | 60 | 0.0 | 0.0 | 0.00 | 0.00 | 0.00 | 42 | 1017.7 | |
| 20260503175008 | 62 | 0.0 | 0.0 | 0.00 | 0.00 | 0.00 | 40 | 1017.4 | |
| 20260503174008 | 64 | 0.0 | 0.0 | 0.00 | 0.00 | 0.00 | 38 | 1017.3 | |
| 20260503173008 | 65 | 0.0 | 0.0 | 0.00 | 0.00 | 0.00 | 36 | 1017.2 | |
| 20260503172008 | 67 | 0.0 | 0.0 | 0.00 | 0.00 | 0.00 | 33 | 1017.0 | |
| 20260503171008 | 70 | 0.0 | 0.0 | 0.00 | 0.00 | 0.00 | 30 | 1016.8 | |
| 20260503151008 | 79 | 0.0 | 0.0 | 0.00 | 0.00 | 0.00 | 22 | 1016.8 | |
| 20260503131009 | 76 | 0.0 | 0.0 | 0.00 | 0.00 | 0.00 | 24 | 1018.5 | |
| 20260503081008 | 59 | 0.0 | 0.0 | 0.00 | 0.00 | 0.00 | 38 | 1022.4 | |
| 20260503072008 | 55 | 0.0 | 0.0 | 0.00 | 0.00 | 0.00 | 44 | 1023.0 | |
| 20260503071008 | 55 | 0.0 | 0.0 | 0.00 | 0.00 | 0.00 | 46 | 1023.0 | |
| 20260503055008 | 45 | 0.0 | 0.0 | 0.00 | 0.00 | 0.00 | 69 | 1023.9 | |
| 20260503054008 | 43 | 0.0 | 0.0 | 0.00 | 0.00 | 0.00 | 73 | 1024.0 | |
| 20260503053008 | 42 | 0.0 | 0.0 | 0.00 | 0.00 | 0.00 | 76 | 1024.0 | |
| 20260503052008 | 41 | 0.0 | 0.0 | 0.00 | 0.00 | 0.00 | 80 | 1024.1 | |
| 20260503051008 | 40 | 0.0 | 0.0 | 0.00 | 0.00 | 0.00 | 81 | 1024.2 | |
| 20260503050008 | 39 | 0.0 | 0.0 | 0.00 | 0.00 | 0.00 | 83 | 1024.4 | |
| 20260503045008 | 38 | 0.0 | 0.0 | 0.00 | 0.00 | 0.00 | 85 | 1024.4 | |
| 20260503044008 | 37 | 0.0 | 0.0 | 0.00 | 0.00 | 0.00 | 87 | 1024.5 | |
| 20260503043008 | 36 | 0.0 | 0.0 | 0.00 | 0.00 | 0.00 | 88 | 1024.6 | |
| 20260503042008 | 36 | 0.0 | 0.0 | 0.00 | 0.00 | 0.00 | 90 | 1024.5 | |
| 20260503041009 | 35 | 0.0 | 0.0 | 0.00 | 0.00 | 0.00 | 91 | 1024.5 | |
| 20260503040008 | 35 | 0.0 | 0.0 | 0.00 | 0.00 | 0.00 | 92 | 1024.3 | |
| 20260503035008 | 34 | 0.0 | 0.0 | 0.00 | 0.00 | 0.00 | 92 | 1024.2 | |
| 20260503034008 | 34 | 0.0 | 0.0 | 0.00 | 0.00 | 0.00 | 93 | 1024.3 | |
| 20260503033009 | 34 | 0.0 | 0.0 | 0.00 | 0.00 | 0.00 | 94 | 1024.3 | |
| 20260503032009 | 34 | 0.0 | 0.0 | 0.00 | 0.00 | 0.00 | 94 | 1024.2 | |
| 20260503031008 | 34 | 0.0 | 0.0 | 0.00 | 0.00 | 0.00 | 91 | 1024.3 | |
| 20260503030008 | 34 | 0.0 | 0.0 | 0.00 | 0.00 | 0.00 | 89 | 1024.2 | |
| 20260503025008 | 34 | 0.0 | 0.0 | 0.00 | 0.00 | 0.00 | 88 | 1024.0 | |
| 20260503024008 | 34 | 0.0 | 0.0 | 0.00 | 0.00 | 0.00 | 88 | 1024.0 | |
| 20260503023008 | 35 | 0.0 | 0.0 | 0.00 | 0.00 | 0.00 | 87 | 1023.9 | |
| 20260503022008 | 35 | 0.0 | 0.0 | 0.00 | 0.00 | 0.00 | 87 | 1023.9 | |
| 20260503021008 | 35 | 0.0 | 0.0 | 0.00 | 0.00 | 0.00 | 87 | 1023.8 | |
| 20260503020008 | 35 | 0.0 | 0.0 | 0.00 | 0.00 | 0.00 | 87 | 1023.7 | |
| 20260503015008 | 35 | 0.0 | 0.0 | 0.00 | 0.00 | 0.00 | 86 | 1023.6 | |
| 20260503014008 | 36 | 0.0 | 0.0 | 0.00 | 0.00 | 0.00 | 84 | 1023.5 | |
| 20260503013009 | 36 | 0.0 | 0.0 | 0.00 | 0.00 | 0.00 | 84 | 1023.5 | |
| 20260503012009 | 36 | 0.0 | 0.0 | 0.00 | 0.00 | 0.00 | 84 | 1023.6 | |
| 20260503011009 | 36 | 0.0 | 0.0 | 0.00 | 0.00 | 0.00 | 85 | 1023.6 | |
| 20260503010008 | 36 | 0.0 | 0.0 | 0.00 | 0.00 | 0.00 | 83 | 1023.6 | |
| 20260503005009 | 37 | 0.0 | 0.0 | 0.00 | 0.00 | 0.00 | 81 | 1023.6 | |
| 20260503004008 | 37 | 0.0 | 0.0 | 0.00 | 0.00 | 0.00 | 80 | 1023.6 | |
| 20260503003008 | 37 | 0.0 | 0.0 | 0.00 | 0.00 | 0.00 | 80 | 1023.6 | |
| 20260503002008 | 38 | 0.0 | 0.0 | 0.00 | 0.00 | 0.00 | 80 | 1023.6 | |
| 20260503001008 | 37 | 0.0 | 0.0 | 0.00 | 0.00 | 0.00 | 80 | 1023.6 | |
| 20260503000008 | 38 | 0.0 | 0.0 | 0.00 | 0.00 | 0.00 | 79 | 1023.6 | |
| 20260502235008 | 38 | 0.0 | 0.0 | 0.00 | 0.00 | 0.00 | 79 | 1023.6 | |
| 20260502234008 | 38 | 0.0 | 0.0 | 0.00 | 0.00 | 0.00 | 78 | 1023.7 | |
| 20260502233008 | 38 | 0.0 | 0.0 | 0.00 | 0.00 | 0.00 | 77 | 1023.7 | |
| 20260502232008 | 39 | 0.0 | 0.0 | 0.00 | 0.00 | 0.00 | 75 | 1023.9 | |
| 20260502231008 | 39 | 0.0 | 0.0 | 0.00 | 0.00 | 0.00 | 76 | 1023.8 | |
| 20260502230008 | 39 | 0.0 | 0.0 | 0.00 | 0.00 | 0.00 | 75 | 1023.8 | |
| 20260502225008 | 40 | 0.0 | 0.0 | 0.00 | 0.00 | 0.00 | 73 | 1023.8 | |
| 20260502224008 | 40 | 0.0 | 0.0 | 0.00 | 0.00 | 0.00 | 73 | 1023.7 | |
| 20260502223008 | 40 | 0.0 | 0.0 | 0.00 | 0.00 | 0.00 | 71 | 1023.7 | |
| 20260502222008 | 41 | 0.0 | 0.0 | 0.00 | 0.00 | 0.00 | 71 | 1023.7 | |
| 20260502221008 | 41 | 0.0 | 0.0 | 0.00 | 0.00 | 0.00 | 70 | 1023.7 | |
| 20260502220008 | 41 | 0.0 | 0.0 | 0.00 | 0.00 | 0.00 | 69 | 1023.6 | |
| 20260502215008 | 42 | 0.0 | 0.0 | 0.00 | 0.00 | 0.00 | 68 | 1023.6 | |
| 20260502214008 | 42 | 0.0 | 0.0 | 0.00 | 0.00 | 0.00 | 67 | 1023.5 | |
| 20260502213008 | 43 | 0.0 | 0.0 | 0.00 | 0.00 | 0.00 | 66 | 1023.5 | |
| 20260502212008 | 43 | 0.0 | 0.0 | 0.00 | 0.00 | 0.00 | 65 | 1023.5 | |
| 20260502211009 | 44 | 0.0 | 0.0 | 0.00 | 0.00 | 0.00 | 64 | 1023.5 | |
| 20260502210008 | 44 | 0.0 | 0.0 | 0.00 | 0.00 | 0.00 | 63 | 1023.5 | |
| 20260502205008 | 45 | 0.0 | 0.0 | 0.00 | 0.00 | 0.00 | 62 | 1023.4 | |
| 20260502204009 | 46 | 0.0 | 0.0 | 0.00 | 0.00 | 0.00 | 61 | 1023.5 | |
| 20260502203008 | 46 | 0.0 | 0.0 | 0.00 | 0.00 | 0.00 | 60 | 1023.4 | |
| 20260502202008 | 47 | 0.0 | 0.0 | 0.00 | 0.00 | 0.00 | 59 | 1023.3 | |
| 20260502201009 | 47 | 0.0 | 0.0 | 0.00 | 0.00 | 0.00 | 57 | 1023.2 | |
| 20260502200008 | 48 | 0.0 | 0.0 | 0.00 | 0.00 | 0.00 | 56 | 1023.0 | |
| 20260502195009 | 49 | 0.0 | 0.0 | 0.00 | 0.00 | 0.00 | 54 | 1022.9 | |
| 20260502194008 | 49 | 0.0 | 0.0 | 0.00 | 0.00 | 0.00 | 53 | 1022.7 | |
| 20260502193008 | 50 | 0.0 | 0.0 | 0.00 | 0.00 | 0.00 | 52 | 1022.7 | |
| 20260502192009 | 51 | 0.0 | 0.0 | 0.00 | 0.00 | 0.00 | 51 | 1022.5 | |
| 20260502191008 | 52 | 0.0 | 0.0 | 0.00 | 0.00 | 0.00 | 48 | 1022.5 | |
| 20260502190008 | 53 | 0.0 | 0.0 | 0.00 | 0.00 | 0.00 | 46 | 1022.2 | |
| 20260502185008 | 54 | 0.0 | 0.0 | 0.00 | 0.00 | 0.00 | 45 | 1022.0 | |
| 20260502184008 | 55 | 0.0 | 0.0 | 0.00 | 0.00 | 0.00 | 42 | 1021.7 | |
| 20260502183009 | 56 | 0.0 | 0.0 | 0.00 | 0.00 | 0.00 | 40 | 1021.6 | |
| 20260502182009 | 58 | 0.0 | 0.0 | 0.00 | 0.00 | 0.00 | 39 | 1021.5 |